Regional Weather Roundup
Issued by NWS Jackson, KY

Home | Current Version | Previous Version | Text Only | Print | Product List | Glossary Off
Versions: 1 2 3 4 5 6 7 8 9 10 11 12 13 14 15 16 17 18 19 20 21 22 23 24 25 26 27 28 29 30 31 32 33 34 35 36 37 38 39 40 41 42 43 44 45 46 47 48 49 50

000
ASUS43 KJKL 212011
RWRJKL

EAST KENTUCKY HOURLY WEATHER ROUNDUP
NATIONAL WEATHER SERVICE JACKSON KY
300 PM EST FRI NOV 21 2014

NOTE: "FAIR" INDICATES FEW OR NO CLOUDS BELOW 12,000 FEET WITH
NO SIGNIFICANT WEATHER AND/OR OBSTRUCTIONS TO VISIBILITY.

* THESE REPORTS ARE NOT UNDER NWS QUALITY CONTROL AND MAY NOT
  REPORT WEATHER SUCH AS PRECIPITATION AND FOG.

KYZ079-080-083-085-087-088-110-112-115-119-120-212100
...EASTERN KENTUCKY...

CITY           SKY/WX    TMP DP  RH WIND       PRES   REMARKS
JACKSON        SUNNY     39   9  29 CALM      30.44S
LONDON         SUNNY     44  11  26 E7        30.43F
SOMERSET*      SUNNY     43  14  31 NE3       30.44F
MONTICELLO*    SUNNY     47  15  27 CALM      30.44F
MIDDLESBORO*   SUNNY     47  12  24 CALM      30.42F
HARLAN APT*    CLEAR     45   9  23 CALM      30.41S
BIG SANDY*     CLEAR     38  12  34 E3        30.45F
MOREHEAD APT*  CLEAR     37   3  23 E3        30.48S
$$

KYZ035-036-041-042-044-050-067-078-099-212100
...CENTRAL KENTUCKY...

CITY           SKY/WX    TMP DP  RH WIND       PRES   REMARKS
MT STERLING*   SUNNY     36  12  38 CALM      30.47S
FLEMING/MASON* SUNNY     33   9  35 NE3       30.48S
DANVILLE*      SUNNY     37  14  38 E6        30.44F WCI  33
RICHMOND*      SUNNY     39  10  30 E5        30.44F
LEXINGTON      SUNNY     38  10  31 MISG      30.45F
FRANKFORT      SUNNY     38   9  30 E6        30.45F WCI  33
$$

KYZ091>093-OHZ055-061-077-WVZ005-015-034-035-042-212100
...SOUTHERN OHIO/WEST VIRGINIA...

CITY           SKY/WX    TMP DP  RH WIND       PRES   REMARKS
COVINGTON      SUNNY     33   9  36 SE5       30.45F WCI  29
COLUMBUS       SUNNY     27  11  51 S5        30.49F WCI  22
DAYTON         SUNNY     30  11  45 SE8       30.46F WCI  22
WILMINGTON     SUNNY     26  10  50 SE5       30.47S WCI  20
HUNTINGTON     SUNNY     36   8  31 NE6       30.48F WCI  31
CHARLESTON     SUNNY     36   6  28 W8        30.48F WCI  30
PINEVILLE*     SUNNY     40  14  34 MISG      30.47S
BECKLEY        SUNNY     33   7  33 W10       30.39R WCI  25
BLUEFIELD      SUNNY     36   4  26 W9        30.37S WCI  29
$$

VAZ002-007-008-TNZ017-027-036-066-071-212100
...SOUTHWEST VIRGINIA/EAST TENNESSEE...

CITY           SKY/WX    TMP DP  RH WIND       PRES   REMARKS
WISE*          SUNNY     41   3  20 E5        30.38S
JONESVILLE*    CLEAR     45   7  21 CALM      30.44S
ABINGDON*      SUNNY     43   7  23 W7        30.40S
BRISTOL        SUNNY     45   9  23 CALM      30.42F
KNOXVILLE      SUNNY     51  13  21 N10       30.40F
OAK RIDGE      SUNNY     51  14  22 VRB5      30.42F
CROSSVILLE     SUNNY     52  17  25 CALM      30.38S
NASHVILLE      MOSUNNY   51  22  31 E6        30.39F
$$

...KEY TO REMARKS...
VSB - VISIBILITY IN MILES
WCI - WIND CHILL INDEX
HX  - HEAT INDEX

$$


USA.gov is the U.S. government's official web portal to all federal, state and local government web resources and services.